| time (UTC) | temp C | wind direction | speed KPH | gust KPH | rain 1hr cm | rain 24hr cm | rain mn cm | humidity % | barometer mb |
| 20260507175009 | 30 | 126 | 8.0 | 24.1 | 0.00 | 0.03 | 0.03 | 80 | 1016.2 |
| 20260507174544 | 30 | 121 | 14.5 | 24.1 | 0.00 | 0.03 | 0.03 | 81 | 1016.3 |
| 20260507174018 | 30 | 134 | 6.4 | 22.5 | 0.00 | 0.03 | 0.03 | 82 | 1016.3 |
| 20260507173514 | 30 | 115 | 11.3 | 22.5 | 0.00 | 0.03 | 0.03 | 81 | 1016.3 |
| 20260507173029 | 30 | 84 | 11.3 | 20.9 | 0.00 | 0.03 | 0.03 | 81 | 1016.2 |
| 20260507172510 | 30 | 118 | 8.0 | 20.9 | 0.00 | 0.03 | 0.03 | 81 | 1016.3 |
| 20260507172015 | 29 | 84 | 4.8 | 19.3 | 0.00 | 0.03 | 0.03 | 82 | 1016.3 |
| 20260507171540 | 29 | 47 | 9.7 | 22.5 | 0.00 | 0.03 | 0.03 | 81 | 1016.4 |
| 20260507171014 | 29 | 96 | 8.0 | 22.5 | 0.00 | 0.03 | 0.03 | 83 | 1016.4 |
| 20260507170512 | 28 | 104 | 6.4 | 19.3 | 0.00 | 0.03 | 0.03 | 83 | 1016.4 |
| 20260507170032 | 28 | 104 | 8.0 | 19.3 | 0.00 | 0.03 | 0.03 | 82 | 1016.5 |
| 20260507165516 | 28 | 85 | 12.9 | 24.1 | 0.00 | 0.03 | 0.03 | 82 | 1016.6 |
| 20260507165012 | 29 | 119 | 9.7 | 24.1 | 0.00 | 0.03 | 0.03 | 83 | 1016.6 |
| 20260507164528 | 30 | 127 | 14.5 | 25.7 | 0.00 | 0.03 | 0.03 | 82 | 1016.7 |
| 20260507164014 | 30 | 141 | 9.7 | 25.7 | 0.00 | 0.03 | 0.03 | 81 | 1016.7 |
| 20260507163514 | 30 | 113 | 12.9 | 25.7 | 0.00 | 0.03 | 0.03 | 79 | 1016.7 |
| 20260507163032 | 30 | 146 | 14.5 | 25.7 | 0.00 | 0.03 | 0.03 | 79 | 1016.6 |
| 20260507162514 | 30 | 119 | 11.3 | 25.7 | 0.00 | 0.03 | 0.03 | 80 | 1016.5 |
| 20260507162013 | 30 | 125 | 11.3 | 20.9 | 0.00 | 0.03 | 0.03 | 81 | 1016.5 |
| 20260507161535 | 30 | 92 | 9.7 | 19.3 | 0.00 | 0.03 | 0.03 | 81 | 1016.5 |
| 20260507161013 | 30 | 173 | 8.0 | 17.7 | 0.00 | 0.03 | 0.03 | 82 | 1016.5 |
| 20260507160513 | 30 | 62 | 11.3 | 22.5 | 0.00 | 0.03 | 0.03 | 81 | 1016.6 |
| 20260507160038 | 30 | 111 | 4.8 | 22.5 | 0.00 | 0.03 | 0.03 | 81 | 1016.6 |
| 20260507155512 | 30 | 123 | 12.9 | 22.5 | 0.00 | 0.03 | 0.03 | 80 | 1016.7 |
| 20260507155010 | 30 | 98 | 12.9 | 20.9 | 0.00 | 0.03 | 0.03 | 79 | 1016.7 |
| 20260507154533 | 30 | 119 | 9.7 | 20.9 | 0.00 | 0.03 | 0.03 | 80 | 1016.8 |
| 20260507154010 | 31 | 113 | 9.7 | 20.9 | 0.00 | 0.03 | 0.03 | 79 | 1016.8 |
| 20260507153512 | 31 | 131 | 11.3 | 22.5 | 0.00 | 0.03 | 0.03 | 78 | 1016.8 |
| 20260507153031 | 31 | 163 | 6.4 | 22.5 | 0.00 | 0.03 | 0.03 | 81 | 1016.7 |
| 20260507152513 | 30 | 97 | 12.9 | 22.5 | 0.00 | 0.03 | 0.03 | 81 | 1016.7 |
| 20260507152009 | 30 | 70 | 12.9 | 19.3 | 0.00 | 0.03 | 0.03 | 82 | 1016.8 |
| 20260507151528 | 30 | 120 | 11.3 | 19.3 | 0.00 | 0.03 | 0.03 | 83 | 1016.8 |
| 20260507151008 | 30 | 117 | 8.0 | 19.3 | 0.00 | 0.03 | 0.03 | 82 | 1016.8 |
| 20260507150512 | 30 | 80 | 9.7 | 17.7 | 0.00 | 0.03 | 0.03 | 82 | 1016.7 |
| 20260507150037 | 30 | 128 | 3.2 | 19.3 | 0.00 | 0.03 | 0.03 | 82 | 1016.7 |
| 20260507145512 | 30 | 105 | 9.7 | 19.3 | 0.00 | 0.03 | 0.03 | 81 | 1016.7 |
| 20260507145018 | 30 | 136 | 11.3 | 20.9 | 0.00 | 0.03 | 0.03 | 81 | 1016.7 |
| 20260507144530 | 30 | 134 | 11.3 | 20.9 | 0.00 | 0.03 | 0.03 | 80 | 1016.7 |
| 20260507144010 | 30 | 126 | 8.0 | 16.1 | 0.00 | 0.03 | 0.03 | 81 | 1016.7 |
| 20260507143512 | 30 | 96 | 8.0 | 19.3 | 0.00 | 0.03 | 0.03 | 82 | 1016.7 |
| 20260507143032 | 30 | 91 | 9.7 | 19.3 | 0.00 | 0.03 | 0.03 | 82 | 1016.8 |
| 20260507142510 | 30 | 108 | 8.0 | 20.9 | 0.00 | 0.03 | 0.03 | 82 | 1016.7 |
| 20260507142011 | 29 | 117 | 8.0 | 20.9 | 0.00 | 0.03 | 0.03 | 83 | 1016.7 |
| 20260507141530 | 29 | 114 | 12.9 | 20.9 | 0.00 | 0.03 | 0.03 | 83 | 1016.7 |
| 20260507141015 | 28 | 112 | 9.7 | 19.3 | 0.00 | 0.03 | 0.03 | 83 | 1016.6 |
| 20260507140509 | 28 | 132 | 6.4 | 19.3 | 0.00 | 0.03 | 0.03 | 84 | 1016.5 |
| 20260507140040 | 28 | 147 | 9.7 | 19.3 | 0.00 | 0.03 | 0.03 | 85 | 1016.6 |
| 20260507135512 | 28 | 146 | 4.8 | 17.7 | 0.00 | 0.05 | 0.03 | 86 | 1016.5 |
| 20260507135014 | 27 | 121 | 6.4 | 17.7 | 0.00 | 0.05 | 0.03 | 87 | 1016.6 |
| 20260507134531 | 27 | 111 | 6.4 | 17.7 | 0.00 | 0.05 | 0.03 | 89 | 1016.6 |
| 20260507134012 | 27 | 130 | 6.4 | 17.7 | 0.00 | 0.05 | 0.03 | 88 | 1016.6 |
| 20260507133513 | 27 | 105 | 8.0 | 17.7 | 0.00 | 0.05 | 0.03 | 87 | 1016.6 |
| 20260507133034 | 27 | 119 | 9.7 | 22.5 | 0.00 | 0.05 | 0.03 | 86 | 1016.5 |
| 20260507132509 | 27 | 72 | 9.7 | 22.5 | 0.00 | 0.05 | 0.03 | 85 | 1016.5 |
| 20260507132009 | 27 | 150 | 9.7 | 24.1 | 0.00 | 0.05 | 0.03 | 85 | 1016.5 |
| 20260507131603 | 27 | 130 | 11.3 | 25.7 | 0.00 | 0.05 | 0.03 | 86 | 1016.5 |
| 20260507131010 | 27 | 146 | 8.0 | 25.7 | 0.00 | 0.05 | 0.03 | 87 | 1016.5 |
| 20260507130510 | 27 | 130 | 9.7 | 25.7 | 0.00 | 0.05 | 0.03 | 88 | 1016.4 |
| 20260507130029 | 27 | 109 | 9.7 | 20.9 | 0.00 | 0.05 | 0.03 | 88 | 1016.3 |
| 20260507125510 | 27 | 108 | 8.0 | 17.7 | 0.00 | 0.08 | 0.03 | 89 | 1016.3 |
| 20260507125014 | 27 | 153 | 8.0 | 19.3 | 0.00 | 0.08 | 0.03 | 89 | 1016.3 |
| 20260507124532 | 27 | 159 | 6.4 | 19.3 | 0.00 | 0.08 | 0.03 | 89 | 1016.2 |
| 20260507124010 | 27 | 47 | 6.4 | 19.3 | 0.00 | 0.08 | 0.03 | 90 | 1016.1 |
| 20260507123512 | 27 | 126 | 4.8 | 11.3 | 0.00 | 0.08 | 0.03 | 91 | 1016.1 |
| 20260507123035 | 26 | 59 | 3.2 | 9.7 | 0.00 | 0.08 | 0.03 | 91 | 1016.2 |
| 20260507122517 | 26 | 0 | 1.6 | 11.3 | 0.00 | 0.08 | 0.03 | 92 | 1016.1 |
| 20260507122011 | 26 | 65 | 3.2 | 14.5 | 0.00 | 0.08 | 0.03 | 92 | 1016.2 |
| 20260507121530 | 26 | 59 | 4.8 | 14.5 | 0.00 | 0.08 | 0.03 | 92 | 1016.2 |
| 20260507121009 | 26 | 53 | 4.8 | 14.5 | 0.00 | 0.08 | 0.03 | 93 | 1016.1 |
| 20260507120510 | 26 | 60 | 3.2 | 11.3 | 0.00 | 0.08 | 0.03 | 93 | 1016.1 |
| 20260507120033 | 26 | 49 | 4.8 | 9.7 | 0.00 | 0.08 | 0.03 | 94 | 1016.0 |
| 20260507115509 | 25 | 38 | 3.2 | 6.4 | 0.00 | 0.08 | 0.03 | 94 | 1016.0 |
| 20260507115012 | 25 | 38 | 1.6 | 6.4 | 0.00 | 0.08 | 0.03 | 94 | 1015.9 |
| 20260507114533 | 25 | 38 | 1.6 | 4.8 | 0.00 | 0.08 | 0.03 | 94 | 1015.9 |
| 20260507114015 | 25 | 38 | 1.6 | 6.4 | 0.00 | 0.08 | 0.03 | 94 | 1015.8 |
| 20260507113513 | 25 | 0 | 1.6 | 6.4 | 0.00 | 0.08 | 0.03 | 94 | 1015.8 |
| 20260507113100 | 25 | 38 | 1.6 | 4.8 | 0.00 | 0.08 | 0.03 | 94 | 1015.6 |
| 20260507112516 | 25 | 38 | 1.6 | 4.8 | 0.00 | 0.08 | 0.03 | 94 | 1015.5 |
| 20260507112014 | 25 | 38 | 1.6 | 4.8 | 0.00 | 0.08 | 0.03 | 94 | 1015.5 |
| 20260507111533 | 25 | 0 | 0.0 | 4.8 | 0.00 | 0.08 | 0.03 | 94 | 1015.5 |
| 20260507111010 | 25 | 81 | 1.6 | 4.8 | 0.00 | 0.08 | 0.03 | 93 | 1015.4 |
| 20260507110512 | 25 | 81 | 0.0 | 4.8 | 0.00 | 0.08 | 0.03 | 93 | 1015.3 |
| 20260507110034 | 25 | 0 | 0.0 | 0.0 | 0.00 | 0.08 | 0.03 | 93 | 1015.2 |
| 20260507105513 | 25 | 0 | 0.0 | 0.0 | 0.00 | 0.08 | 0.03 | 93 | 1015.2 |
| 20260507105009 | 25 | 0 | 0.0 | 0.0 | 0.00 | 0.08 | 0.03 | 93 | 1015.1 |
| 20260507104530 | 25 | 0 | 0.0 | 0.0 | 0.00 | 0.08 | 0.03 | 93 | 1015.1 |
| 20260507104010 | 25 | 0 | 0.0 | 0.0 | 0.00 | 0.08 | 0.03 | 93 | 1015.1 |
| 20260507103510 | 25 | 0 | 0.0 | 0.0 | 0.00 | 0.08 | 0.03 | 92 | 1015.0 |
| 20260507103032 | 25 | 0 | 0.0 | 0.0 | 0.00 | 0.08 | 0.03 | 92 | 1015.0 |
| 20260507102510 | 25 | 0 | 0.0 | 3.2 | 0.00 | 0.08 | 0.03 | 92 | 1015.0 |
| 20260507102012 | 25 | 0 | 0.0 | 3.2 | 0.00 | 0.08 | 0.03 | 92 | 1015.0 |
| 20260507101528 | 25 | 0 | 0.0 | 4.8 | 0.00 | 0.08 | 0.03 | 92 | 1015.0 |
| 20260507101012 | 25 | 81 | 0.0 | 4.8 | 0.00 | 0.08 | 0.03 | 92 | 1014.9 |
| 20260507100509 | 25 | 0 | 1.6 | 4.8 | 0.00 | 0.08 | 0.03 | 91 | 1014.9 |
| 20260507100042 | 25 | 81 | 0.0 | 4.8 | 0.00 | 0.08 | 0.03 | 91 | 1014.9 |
| 20260507095509 | 25 | 0 | 0.0 | 3.2 | 0.00 | 0.08 | 0.03 | 91 | 1014.9 |
| 20260507095014 | 25 | 0 | 0.0 | 3.2 | 0.00 | 0.08 | 0.03 | 91 | 1014.9 |
| 20260507094533 | 26 | 0 | 0.0 | 4.8 | 0.00 | 0.08 | 0.03 | 90 | 1014.8 |
| 20260507094012 | 26 | 0 | 0.0 | 4.8 | 0.00 | 0.08 | 0.03 | 90 | 1014.7 |
| 20260507093511 | 26 | 0 | 0.0 | 3.2 | 0.00 | 0.08 | 0.03 | 90 | 1014.7 |
| 20260507093034 | 26 | 0 | 0.0 | 3.2 | 0.00 | 0.08 | 0.03 | 90 | 1014.7 |
| 20260507092514 | 26 | 81 | 0.0 | 3.2 | 0.00 | 0.08 | 0.03 | 90 | 1014.7 |
| 20260507092010 | 26 | 0 | 0.0 | 3.2 | 0.03 | 0.08 | 0.03 | 90 | 1014.6 |
| 20260507091534 | 26 | 0 | 0.0 | 6.4 | 0.03 | 0.08 | 0.03 | 90 | 1014.6 |
| 20260507091012 | 26 | 81 | 1.6 | 6.4 | 0.03 | 0.08 | 0.03 | 90 | 1014.7 |
| 20260507090514 | 26 | 81 | 1.6 | 6.4 | 0.03 | 0.08 | 0.03 | 90 | 1014.7 |
| 20260507090029 | 26 | 81 | 1.6 | 9.7 | 0.03 | 0.08 | 0.03 | 90 | 1014.7 |
| 20260507085510 | 26 | 81 | 3.2 | 9.7 | 0.03 | 0.08 | 0.03 | 90 | 1014.7 |
| 20260507085010 | 26 | 78 | 3.2 | 8.0 | 0.03 | 0.08 | 0.03 | 90 | 1014.7 |
| 20260507084547 | 26 | 84 | 1.6 | 6.4 | 0.03 | 0.08 | 0.03 | 90 | 1014.7 |
| 20260507084015 | 26 | 84 | 1.6 | 9.7 | 0.03 | 0.08 | 0.03 | 90 | 1014.7 |
| 20260507083510 | 26 | 84 | 1.6 | 12.9 | 0.03 | 0.08 | 0.03 | 90 | 1014.7 |
| 20260507083030 | 26 | 99 | 6.4 | 12.9 | 0.03 | 0.08 | 0.03 | 90 | 1014.7 |
| 20260507082511 | 26 | 80 | 3.2 | 11.3 | 0.03 | 0.08 | 0.03 | 90 | 1014.6 |
| 20260507082011 | 26 | 114 | 4.8 | 11.3 | 0.00 | 0.05 | 0.00 | 90 | 1014.6 |
| 20260507081532 | 26 | 95 | 3.2 | 11.3 | 0.00 | 0.05 | 0.00 | 90 | 1014.6 |
| 20260507081015 | 26 | 87 | 3.2 | 11.3 | 0.00 | 0.05 | 0.00 | 90 | 1014.7 |
| 20260507080512 | 26 | 90 | 3.2 | 9.7 | 0.00 | 0.05 | 0.00 | 90 | 1014.7 |
| 20260507080032 | 26 | 90 | 3.2 | 9.7 | 0.00 | 0.05 | 0.00 | 90 | 1014.7 |
| 20260507075512 | 26 | 90 | 3.2 | 9.7 | 0.00 | 0.05 | 0.00 | 90 | 1014.7 |
| 20260507075017 | 26 | 0 | 1.6 | 9.7 | 0.00 | 0.05 | 0.00 | 90 | 1014.8 |
| 20260507074529 | 26 | 0 | 0.0 | 6.4 | 0.00 | 0.05 | 0.00 | 89 | 1014.7 |
| 20260507074009 | 26 | 101 | 1.6 | 6.4 | 0.00 | 0.05 | 0.00 | 89 | 1014.8 |
| 20260507073510 | 26 | 71 | 0.0 | 6.4 | 0.00 | 0.05 | 0.00 | 89 | 1014.8 |
| 20260507073028 | 26 | 0 | 0.0 | 12.9 | 0.00 | 0.05 | 0.00 | 89 | 1014.9 |
| 20260507072513 | 26 | 71 | 1.6 | 12.9 | 0.00 | 0.05 | 0.00 | 89 | 1015.0 |
| 20260507072012 | 26 | 71 | 3.2 | 12.9 | 0.00 | 0.05 | 0.00 | 90 | 1015.0 |
| 20260507071537 | 26 | 105 | 3.2 | 9.7 | 0.00 | 0.05 | 0.00 | 89 | 1015.1 |
| 20260507071011 | 26 | 88 | 1.6 | 6.4 | 0.00 | 0.05 | 0.00 | 89 | 1015.1 |
| 20260507070511 | 26 | 0 | 0.0 | 3.2 | 0.00 | 0.05 | 0.00 | 89 | 1015.2 |
| 20260507070032 | 26 | 88 | 0.0 | 4.8 | 0.00 | 0.05 | 0.00 | 89 | 1015.3 |
| 20260507065511 | 26 | 0 | 0.0 | 6.4 | 0.00 | 0.05 | 0.00 | 89 | 1015.3 |
| 20260507065011 | 26 | 88 | 0.0 | 6.4 | 0.00 | 0.05 | 0.00 | 89 | 1015.4 |
| 20260507064531 | 26 | 88 | 1.6 | 6.4 | 0.00 | 0.05 | 0.00 | 89 | 1015.3 |
| 20260507064009 | 26 | 88 | 1.6 | 4.8 | 0.00 | 0.05 | 0.00 | 89 | 1015.5 |
| 20260507063511 | 26 | 88 | 1.6 | 6.4 | 0.00 | 0.05 | 0.00 | 88 | 1015.5 |
| 20260507063029 | 26 | 0 | 0.0 | 9.7 | 0.00 | 0.05 | 0.00 | 88 | 1015.5 |
| 20260507062511 | 26 | 88 | 3.2 | 9.7 | 0.00 | 0.05 | 0.00 | 88 | 1015.6 |
| 20260507062013 | 26 | 101 | 0.0 | 4.8 | 0.00 | 0.05 | 0.00 | 88 | 1015.7 |
| 20260507061536 | 26 | 0 | 0.0 | 4.8 | 0.00 | 0.05 | 0.00 | 88 | 1015.5 |
| 20260507061013 | 26 | 0 | 1.6 | 6.4 | 0.00 | 0.05 | 0.00 | 87 | 1015.6 |
| 20260507060508 | 26 | 0 | 0.0 | 6.4 | 0.00 | 0.05 | 0.00 | 87 | 1015.6 |
| 20260507060036 | 27 | 0 | 1.6 | 6.4 | 0.00 | 0.05 | 0.00 | 87 | 1015.7 |
| 20260507055512 | 27 | 101 | 0.0 | 4.8 | 0.00 | 0.05 | 0.00 | 87 | 1015.8 |
| 20260507055011 | 27 | 0 | 0.0 | 9.7 | 0.00 | 0.05 | 0.00 | 87 | 1015.8 |
| 20260507054538 | 27 | 101 | 0.0 | 12.9 | 0.00 | 0.05 | 0.00 | 87 | 1015.9 |
| 20260507054009 | 27 | 101 | 3.2 | 12.9 | 0.00 | 0.05 | 0.00 | 87 | 1015.9 |
| 20260507053511 | 27 | 75 | 3.2 | 12.9 | 0.00 | 0.05 | 0.00 | 87 | 1016.0 |
| 20260507053031 | 27 | 99 | 1.6 | 8.0 | 0.00 | 0.05 | 0.00 | 87 | 1015.9 |
| 20260507052509 | 27 | 99 | 4.8 | 11.3 | 0.00 | 0.05 | 0.00 | 87 | 1016.1 |
| 20260507052011 | 27 | 76 | 1.6 | 11.3 | 0.00 | 0.05 | 0.00 | 87 | 1016.2 |
| 20260507051529 | 27 | 109 | 1.6 | 12.9 | 0.00 | 0.05 | 0.00 | 87 | 1016.2 |
| 20260507051016 | 27 | 79 | 3.2 | 12.9 | 0.00 | 0.05 | 0.00 | 87 | 1016.3 |
| 20260507050511 | 27 | 111 | 3.2 | 12.9 | 0.00 | 0.05 | 0.00 | 87 | 1016.4 |
| 20260507050052 | 27 | 88 | 4.8 | 11.3 | 0.00 | 0.05 | 0.00 | 87 | 1016.4 |
| 20260507045511 | 27 | 89 | 4.8 | 11.3 | 0.00 | 0.05 | 0.05 | 87 | 1016.5 |
| 20260507045009 | 27 | 103 | 3.2 | 11.3 | 0.00 | 0.05 | 0.05 | 87 | 1016.5 |
| 20260507044531 | 27 | 55 | 3.2 | 11.3 | 0.00 | 0.05 | 0.05 | 87 | 1016.5 |
| 20260507044011 | 27 | 88 | 4.8 | 11.3 | 0.00 | 0.05 | 0.05 | 87 | 1016.5 |
| 20260507043512 | 27 | 76 | 4.8 | 11.3 | 0.00 | 0.05 | 0.05 | 87 | 1016.5 |
| 20260507043028 | 27 | 96 | 3.2 | 11.3 | 0.00 | 0.05 | 0.05 | 87 | 1016.5 |
| 20260507042511 | 27 | 107 | 4.8 | 11.3 | 0.00 | 0.05 | 0.05 | 87 | 1016.5 |
| 20260507042014 | 27 | 77 | 4.8 | 12.9 | 0.00 | 0.05 | 0.05 | 87 | 1016.5 |
| 20260507041529 | 27 | 113 | 3.2 | 12.9 | 0.00 | 0.05 | 0.05 | 87 | 1016.5 |
| 20260507041010 | 27 | 117 | 3.2 | 12.9 | 0.00 | 0.05 | 0.05 | 87 | 1016.5 |
| 20260507040510 | 27 | 96 | 4.8 | 12.9 | 0.00 | 0.05 | 0.05 | 87 | 1016.5 |
| 20260507040027 | 27 | 94 | 1.6 | 11.3 | 0.00 | 0.05 | 0.05 | 87 | 1016.5 |
| 20260507035509 | 27 | 110 | 4.8 | 11.3 | 0.00 | 0.05 | 0.05 | 87 | 1016.4 |
| 20260507035010 | 27 | 138 | 3.2 | 9.7 | 0.00 | 0.05 | 0.05 | 87 | 1016.4 |
| 20260507034536 | 27 | 71 | 3.2 | 9.7 | 0.00 | 0.05 | 0.05 | 87 | 1016.4 |
| 20260507034013 | 27 | 92 | 3.2 | 9.7 | 0.00 | 0.05 | 0.05 | 87 | 1016.5 |
| 20260507033511 | 27 | 92 | 1.6 | 6.4 | 0.00 | 0.05 | 0.05 | 87 | 1016.5 |
| 20260507033037 | 27 | 0 | 1.6 | 6.4 | 0.00 | 0.05 | 0.05 | 86 | 1016.5 |
| 20260507032510 | 27 | 92 | 1.6 | 6.4 | 0.00 | 0.05 | 0.05 | 86 | 1016.5 |
| 20260507032011 | 27 | 89 | 3.2 | 9.7 | 0.00 | 0.05 | 0.05 | 86 | 1016.5 |
| 20260507031533 | 27 | 89 | 3.2 | 9.7 | 0.00 | 0.05 | 0.05 | 86 | 1016.6 |
| 20260507031011 | 27 | 89 | 3.2 | 12.9 | 0.00 | 0.05 | 0.05 | 86 | 1016.6 |
| 20260507030511 | 27 | 101 | 4.8 | 12.9 | 0.00 | 0.05 | 0.05 | 86 | 1016.5 |
| 20260507030036 | 27 | 76 | 4.8 | 9.7 | 0.00 | 0.05 | 0.05 | 86 | 1016.5 |
| 20260507025510 | 27 | 117 | 3.2 | 11.3 | 0.00 | 0.05 | 0.05 | 86 | 1016.4 |
| 20260507025015 | 27 | 117 | 4.8 | 11.3 | 0.00 | 0.05 | 0.05 | 86 | 1016.3 |
| 20260507024535 | 27 | 105 | 3.2 | 9.7 | 0.00 | 0.05 | 0.05 | 86 | 1016.3 |
| 20260507024012 | 27 | 105 | 1.6 | 11.3 | 0.00 | 0.05 | 0.05 | 86 | 1016.2 |
| 20260507023512 | 27 | 104 | 3.2 | 11.3 | 0.00 | 0.05 | 0.05 | 86 | 1016.2 |
| 20260507023030 | 27 | 142 | 3.2 | 11.3 | 0.00 | 0.05 | 0.05 | 86 | 1016.2 |
| 20260507022511 | 27 | 106 | 3.2 | 11.3 | 0.00 | 0.05 | 0.05 | 86 | 1016.2 |
| 20260507022012 | 27 | 98 | 4.8 | 9.7 | 0.00 | 0.05 | 0.05 | 86 | 1016.1 |
| 20260507021544 | 27 | 113 | 3.2 | 6.4 | 0.00 | 0.05 | 0.05 | 86 | 1016.1 |
| 20260507021011 | 27 | 113 | 1.6 | 6.4 | 0.00 | 0.05 | 0.05 | 86 | 1016.1 |
| 20260507020510 | 27 | 113 | 3.2 | 6.4 | 0.00 | 0.05 | 0.05 | 86 | 1016.1 |
| 20260507020033 | 27 | 113 | 3.2 | 6.4 | 0.00 | 0.05 | 0.05 | 85 | 1016.1 |
| 20260507015510 | 27 | 113 | 3.2 | 9.7 | 0.00 | 0.05 | 0.05 | 85 | 1016.2 |
| 20260507015009 | 27 | 113 | 3.2 | 9.7 | 0.00 | 0.05 | 0.05 | 85 | 1016.2 |
| 20260507014528 | 27 | 96 | 3.2 | 9.7 | 0.00 | 0.05 | 0.05 | 85 | 1016.0 |
| 20260507014015 | 27 | 140 | 3.2 | 9.7 | 0.00 | 0.05 | 0.05 | 85 | 1016.0 |
| 20260507013511 | 27 | 89 | 4.8 | 12.9 | 0.00 | 0.05 | 0.05 | 85 | 1015.9 |
| 20260507013035 | 27 | 56 | 6.4 | 12.9 | 0.00 | 0.05 | 0.05 | 85 | 1015.9 |
| 20260507012514 | 27 | 134 | 4.8 | 12.9 | 0.00 | 0.05 | 0.05 | 85 | 1015.9 |
| 20260507012014 | 27 | 96 | 4.8 | 11.3 | 0.00 | 0.05 | 0.05 | 85 | 1015.8 |
| 20260507011535 | 27 | 103 | 4.8 | 11.3 | 0.00 | 0.05 | 0.05 | 85 | 1015.8 |
| 20260507011011 | 27 | 96 | 3.2 | 12.9 | 0.00 | 0.05 | 0.05 | 85 | 1015.7 |
| 20260507010513 | 27 | 73 | 4.8 | 12.9 | 0.00 | 0.05 | 0.05 | 85 | 1015.8 |
| 20260507010038 | 27 | 120 | 3.2 | 11.3 | 0.00 | 0.05 | 0.05 | 85 | 1015.6 |
| 20260507005512 | 27 | 120 | 4.8 | 11.3 | 0.00 | 0.05 | 0.05 | 85 | 1015.6 |
| 20260507005017 | 27 | 128 | 4.8 | 11.3 | 0.00 | 0.05 | 0.05 | 84 | 1015.7 |
| 20260507004530 | 27 | 143 | 4.8 | 12.9 | 0.00 | 0.05 | 0.05 | 84 | 1015.6 |
| 20260507004011 | 27 | 101 | 6.4 | 12.9 | 0.00 | 0.05 | 0.05 | 84 | 1015.6 |
| 20260507003511 | 27 | 126 | 4.8 | 12.9 | 0.00 | 0.05 | 0.05 | 83 | 1015.6 |
| 20260507003031 | 27 | 134 | 3.2 | 12.9 | 0.00 | 0.05 | 0.05 | 83 | 1015.6 |
| 20260507002511 | 28 | 116 | 4.8 | 14.5 | 0.00 | 0.05 | 0.05 | 83 | 1015.6 |
| 20260507002011 | 28 | 106 | 4.8 | 16.1 | 0.00 | 0.05 | 0.05 | 83 | 1015.6 |
| 20260507001533 | 28 | 132 | 6.4 | 16.1 | 0.00 | 0.05 | 0.05 | 82 | 1015.6 |
| 20260507001011 | 28 | 98 | 6.4 | 16.1 | 0.00 | 0.05 | 0.05 | 82 | 1015.6 |
| 20260507000517 | 28 | 127 | 4.8 | 12.9 | 0.00 | 0.05 | 0.05 | 82 | 1015.5 |
| 20260507000034 | 28 | 87 | 6.4 | 17.7 | 0.00 | 0.05 | 0.05 | 82 | 1015.3 |
| 20260506235509 | 28 | 92 | 6.4 | 17.7 | 0.00 | 0.05 | 0.05 | 82 | 1015.3 |
| 20260506235016 | 28 | 96 | 8.0 | 17.7 | 0.00 | 0.05 | 0.05 | 81 | 1015.3 |
| 20260506234528 | 28 | 108 | 9.7 | 19.3 | 0.00 | 0.05 | 0.05 | 81 | 1015.2 |
| 20260506234011 | 28 | 129 | 8.0 | 19.3 | 0.00 | 0.05 | 0.05 | 81 | 1015.2 |
| 20260506233508 | 28 | 153 | 6.4 | 16.1 | 0.00 | 0.05 | 0.05 | 80 | 1015.2 |
| 20260506233028 | 28 | 86 | 8.0 | 17.7 | 0.00 | 0.05 | 0.05 | 79 | 1015.2 |
| 20260506232513 | 28 | 101 | 8.0 | 17.7 | 0.00 | 0.05 | 0.05 | 79 | 1015.2 |
| 20260506232010 | 28 | 109 | 8.0 | 17.7 | 0.00 | 0.05 | 0.05 | 79 | 1015.2 |
| 20260506231532 | 29 | 99 | 8.0 | 16.1 | 0.00 | 0.05 | 0.05 | 79 | 1015.2 |
| 20260506231010 | 29 | 129 | 9.7 | 16.1 | 0.00 | 0.05 | 0.05 | 79 | 1015.1 |
| 20260506230511 | 29 | 91 | 8.0 | 16.1 | 0.00 | 0.05 | 0.05 | 78 | 1015.2 |
| 20260506230033 | 29 | 133 | 6.4 | 17.7 | 0.00 | 0.05 | 0.05 | 78 | 1015.1 |
| 20260506225518 | 29 | 128 | 6.4 | 19.3 | 0.00 | 0.05 | 0.05 | 78 | 1015.1 |
| 20260506225010 | 29 | 98 | 11.3 | 19.3 | 0.00 | 0.05 | 0.05 | 78 | 1015.2 |
| 20260506224530 | 29 | 136 | 9.7 | 17.7 | 0.00 | 0.05 | 0.05 | 77 | 1015.1 |
| 20260506224008 | 29 | 113 | 8.0 | 20.9 | 0.00 | 0.05 | 0.05 | 77 | 1015.1 |
| 20260506223515 | 29 | 148 | 11.3 | 22.5 | 0.00 | 0.05 | 0.05 | 76 | 1015.0 |
| 20260506223027 | 30 | 94 | 9.7 | 22.5 | 0.00 | 0.05 | 0.05 | 76 | 1014.9 |
| 20260506222509 | 30 | 109 | 9.7 | 24.1 | 0.00 | 0.05 | 0.05 | 75 | 1014.9 |
| 20260506222015 | 30 | 80 | 11.3 | 24.1 | 0.00 | 0.05 | 0.05 | 74 | 1014.8 |
| 20260506221528 | 30 | 159 | 6.4 | 20.9 | 0.00 | 0.05 | 0.05 | 75 | 1014.7 |
| 20260506221012 | 30 | 108 | 8.0 | 22.5 | 0.00 | 0.05 | 0.05 | 75 | 1014.7 |
| 20260506220510 | 30 | 136 | 11.3 | 22.5 | 0.00 | 0.05 | 0.05 | 75 | 1014.7 |
| 20260506220035 | 30 | 92 | 11.3 | 19.3 | 0.00 | 0.05 | 0.05 | 75 | 1014.7 |
| 20260506215508 | 30 | 89 | 11.3 | 24.1 | 0.00 | 0.05 | 0.05 | 76 | 1014.7 |
| 20260506215012 | 30 | 108 | 8.0 | 24.1 | 0.00 | 0.05 | 0.05 | 76 | 1014.7 |
| 20260506214531 | 30 | 144 | 9.7 | 20.9 | 0.00 | 0.05 | 0.05 | 77 | 1014.7 |
| 20260506214011 | 30 | 98 | 9.7 | 22.5 | 0.00 | 0.05 | 0.05 | 76 | 1014.7 |
| 20260506213511 | 30 | 119 | 4.8 | 22.5 | 0.00 | 0.05 | 0.05 | 75 | 1014.7 |
| 20260506213032 | 30 | 111 | 9.7 | 22.5 | 0.00 | 0.05 | 0.05 | 74 | 1014.8 |
| 20260506212508 | 30 | 131 | 8.0 | 20.9 | 0.00 | 0.05 | 0.05 | 74 | 1014.7 |
| 20260506212015 | 31 | 75 | 11.3 | 20.9 | 0.00 | 0.05 | 0.05 | 73 | 1014.8 |
| 20260506211530 | 30 | 97 | 12.9 | 24.1 | 0.00 | 0.05 | 0.05 | 73 | 1014.8 |
| 20260506211010 | 31 | 59 | 11.3 | 24.1 | 0.00 | 0.05 | 0.05 | 72 | 1014.9 |
| 20260506210511 | 31 | 118 | 14.5 | 24.1 | 0.00 | 0.05 | 0.05 | 72 | 1014.9 |
| 20260506210035 | 31 | 119 | 11.3 | 19.3 | 0.00 | 0.05 | 0.05 | 72 | 1015.0 |
| 20260506205510 | 31 | 67 | 9.7 | 25.7 | 0.00 | 0.05 | 0.05 | 72 | 1015.0 |
| 20260506205008 | 31 | 158 | 11.3 | 27.4 | 0.00 | 0.05 | 0.05 | 72 | 1015.1 |
| 20260506204546 | 31 | 125 | 12.9 | 27.4 | 0.00 | 0.05 | 0.05 | 72 | 1015.1 |
| 20260506204013 | 31 | 128 | 8.0 | 25.7 | 0.00 | 0.05 | 0.05 | 71 | 1015.1 |
| 20260506203513 | 31 | 119 | 11.3 | 25.7 | 0.00 | 0.05 | 0.05 | 71 | 1015.2 |
| 20260506203031 | 31 | 113 | 9.7 | 25.7 | 0.00 | 0.05 | 0.05 | 71 | 1015.2 |
| 20260506202509 | 31 | 116 | 11.3 | 24.1 | 0.00 | 0.05 | 0.05 | 72 | 1015.2 |
| 20260506202010 | 31 | 87 | 11.3 | 24.1 | 0.00 | 0.05 | 0.05 | 71 | 1015.3 |
| 20260506201533 | 31 | 118 | 12.9 | 24.1 | 0.00 | 0.05 | 0.05 | 70 | 1015.3 |
| 20260506201009 | 32 | 132 | 16.1 | 24.1 | 0.00 | 0.05 | 0.05 | 71 | 1015.3 |
| 20260506200508 | 31 | 67 | 11.3 | 24.1 | 0.00 | 0.05 | 0.05 | 72 | 1015.3 |
| 20260506200033 | 32 | 88 | 14.5 | 25.7 | 0.00 | 0.05 | 0.05 | 72 | 1015.3 |
| 20260506195510 | 32 | 121 | 16.1 | 25.7 | 0.00 | 0.05 | 0.05 | 72 | 1015.4 |
| 20260506195010 | 32 | 91 | 12.9 | 22.5 | 0.00 | 0.05 | 0.05 | 73 | 1015.4 |
| 20260506194533 | 32 | 123 | 6.4 | 22.5 | 0.00 | 0.05 | 0.05 | 74 | 1015.4 |
| 20260506194011 | 32 | 145 | 14.5 | 29.0 | 0.00 | 0.05 | 0.05 | 73 | 1015.4 |
| 20260506193509 | 32 | 111 | 14.5 | 29.0 | 0.00 | 0.05 | 0.05 | 73 | 1015.5 |
| 20260506193031 | 32 | 117 | 11.3 | 29.0 | 0.00 | 0.05 | 0.05 | 73 | 1015.5 |
| 20260506192510 | 32 | 119 | 9.7 | 24.1 | 0.00 | 0.05 | 0.05 | 72 | 1015.6 |
| 20260506192012 | 32 | 143 | 14.5 | 24.1 | 0.00 | 0.05 | 0.05 | 72 | 1015.6 |
| 20260506191528 | 32 | 134 | 11.3 | 22.5 | 0.00 | 0.05 | 0.05 | 72 | 1015.6 |
| 20260506191010 | 32 | 119 | 11.3 | 22.5 | 0.00 | 0.05 | 0.05 | 72 | 1015.7 |
| 20260506190511 | 32 | 123 | 8.0 | 22.5 | 0.00 | 0.05 | 0.05 | 72 | 1015.8 |
| 20260506190027 | 32 | 182 | 11.3 | 17.7 | 0.00 | 0.05 | 0.05 | 71 | 1015.8 |
| 20260506185508 | 32 | 120 | 8.0 | 19.3 | 0.00 | 0.05 | 0.05 | 72 | 1015.9 |
| 20260506185011 | 32 | 137 | 11.3 | 22.5 | 0.00 | 0.05 | 0.05 | 71 | 1015.9 |
| 20260506184531 | 32 | 105 | 9.7 | 22.5 | 0.00 | 0.05 | 0.05 | 72 | 1015.9 |
| 20260506184008 | 32 | 134 | 8.0 | 22.5 | 0.00 | 0.05 | 0.05 | 73 | 1016.0 |
| 20260506183511 | 32 | 168 | 9.7 | 22.5 | 0.00 | 0.05 | 0.05 | 73 | 1015.9 |
| 20260506183029 | 32 | 128 | 14.5 | 24.1 | 0.00 | 0.05 | 0.05 | 73 | 1016.0 |
| 20260506182509 | 32 | 130 | 14.5 | 24.1 | 0.00 | 0.05 | 0.05 | 72 | 1016.1 |
| 20260506182010 | 32 | 141 | 11.3 | 22.5 | 0.00 | 0.05 | 0.05 | 73 | 1016.2 |
| 20260506181532 | 32 | 89 | 11.3 | 24.1 | 0.00 | 0.05 | 0.05 | 74 | 1016.3 |
| 20260506181011 | 32 | 88 | 9.7 | 24.1 | 0.00 | 0.05 | 0.05 | 73 | 1016.3 |
| 20260506180510 | 32 | 135 | 11.3 | 24.1 | 0.00 | 0.05 | 0.05 | 72 | 1016.3 |
| 20260506180030 | 32 | 114 | 11.3 | 24.1 | 0.00 | 0.05 | 0.05 | 72 | 1016.4 |
| 20260506175509 | 32 | 123 | 9.7 | 24.1 | 0.00 | 0.05 | 0.05 | 72 | 1016.5 |